User: anonymous   Login
Location: Newark
(34.6283°N, 36.0776°E)
Time: 10:10:02
(UTC+00:00)
Language:

Courier 1B - Orbit

View from above orbital plane
View from above orbital plane
View from above satellite
View from above satellite

Ground track
Ground track

The orbit data is extracted from the following two-line orbital elements,

1    58U 60013A   19258.81011701  .00000083  00000-0 -39268-5 0  9992
2    58  28.3293  53.0353 0165060 307.1931  51.3650 13.46319157901979
Epoch (UTC): 15 September 2019 19:26:34
Eccentricity: 0.0165060
inclination: 28.3293°
perigee height: 962 km
apogee height: 1209 km
right ascension of ascending node: 53.0353°
argument of perigee: 307.1931°
revolutions per day: 13.46319157
mean anomaly at epoch: 51.3650°
orbit number at epoch: 90197

The dashed part of the orbit path shows where the satellite is in the earth's shadow,  

DLR